When you browse on this site, cookies collect data to enhance your experience and personalize the content and advertising you see.
Visit our Privacy Policy to learn more. By continuing to use the site, you agree to this use of cookies and data.
  • In United Kingdom
  • List of Countries
  • For 7 days
  • Water Temperature
  • Satellite Maps
  • Weather Map
  • Weather Widgets
  • user-avatar
    Login

    Hourly Weather Ogooue-Ivindo

    Today, 25 April, Thursday

    Time Temperature Precipitation Wind Pressure Humidity
    00:00 +24°C° 1.6 mm 1 mps 714 mmHg 97%
    01:00 +24°C° 0 mm 1 mps 714 mmHg 98%
    02:00 +24°C° 0.1 mm 1 mps 714 mmHg 98%
    03:00 +24°C° 0.1 mm 1 mps 714 mmHg 98%
    04:00 +24°C° 0.1 mm 1 mps 714 mmHg 98%
    05:00 +24°C° 0 mm 1 mps 714 mmHg 97%
    06:00 +24°C° 0 mm 1 mps 715 mmHg 97%
    07:00 +24°C° 0 mm 1 mps 715 mmHg 95%
    08:00 +26°C° 0 mm 1 mps 715 mmHg 86%
    09:00 +28°C° 0 mm 1 mps 715 mmHg 76%
    10:00 +30°C° 0 mm 2 mps 715 mmHg 66%
    11:00 +32°C° 0 mm 1 mps 715 mmHg 60%
    12:00 +34°C° 0 mm 1 mps 714 mmHg 53%
    13:00 +36°C° 0 mm 1 mps 714 mmHg 46%
    14:00 +35°C° 0 mm 1 mps 713 mmHg 50%
    15:00 +34°C° 0 mm 1 mps 713 mmHg 53%
    16:00 +33°C° 0 mm 1 mps 712 mmHg 56%
    17:00 +31°C° 0.1 mm 1 mps 712 mmHg 65%
    18:00 +29°C° 0.1 mm 1 mps 712 mmHg 74%
    19:00 +27°C° 0.1 mm 1 mps 712 mmHg 83%
    20:00 +27°C° 0.2 mm 1 mps 713 mmHg 86%
    21:00 +26°C° 0.2 mm 1 mps 713 mmHg 88%
    22:00 +26°C° 0.2 mm 1 mps 713 mmHg 91%
    23:00 +26°C° 0 mm 1 mps 713 mmHg 91%

    Tomorrow, 26 April, Friday

    Time Temperature Precipitation Wind Pressure Humidity
    00:00 +25°C° 0 mm 1 mps 713 mmHg 92%
    01:00 +25°C° 0 mm 1 mps 713 mmHg 93%
    02:00 +25°C° 0.1 mm 1 mps 713 mmHg 94%
    03:00 +24°C° 0.1 mm 1 mps 713 mmHg 96%
    04:00 +24°C° 0.1 mm 1 mps 713 mmHg 97%
    05:00 +24°C° 0.1 mm 1 mps 713 mmHg 96%
    06:00 +25°C° 0.1 mm 1 mps 713 mmHg 96%
    07:00 +25°C° 0.1 mm 1 mps 714 mmHg 95%
    08:00 +26°C° 0 mm 1 mps 714 mmHg 91%
    09:00 +27°C° 0 mm 1 mps 714 mmHg 87%
    10:00 +27°C° 0 mm 1 mps 714 mmHg 83%
    11:00 +30°C° 0 mm 1 mps 714 mmHg 73%
    12:00 +32°C° 0 mm 1 mps 714 mmHg 63%
    13:00 +34°C° 0 mm 1 mps 713 mmHg 53%
    14:00 +34°C° 0 mm 1 mps 713 mmHg 53%
    15:00 +34°C° 0 mm 1 mps 712 mmHg 54%
    16:00 +34°C° 0 mm 1 mps 712 mmHg 54%
    17:00 +32°C° 0.2 mm 1 mps 712 mmHg 63%
    18:00 +30°C° 0.2 mm 1 mps 712 mmHg 73%
    19:00 +27°C° 0.2 mm 1 mps 712 mmHg 82%
    20:00 +27°C° 0.1 mm 1 mps 712 mmHg 84%
    21:00 +24°C° 0.1 mm 0 mps 713 mmHg 86%
    22:00 +24°C° 0.1 mm 0 mps 713 mmHg 88%
    23:00 +23°C° 0.2 mm 0 mps 713 mmHg 89%

    Day after tomorrow, 27 April, Saturday

    Time Temperature Precipitation Wind Pressure Humidity
    00:00 +23°C° 0.2 mm 0 mps 713 mmHg 91%
    01:00 +23°C° 0.2 mm 0 mps 712 mmHg 92%
    02:00 +23°C° 0 mm 0 mps 712 mmHg 93%
    03:00 +25°C° 0 mm 1 mps 711 mmHg 94%
    04:00 +24°C° 0 mm 1 mps 711 mmHg 95%
    05:00 +25°C° 0 mm 1 mps 712 mmHg 95%
    06:00 +25°C° 0 mm 1 mps 712 mmHg 94%
    07:00 +23°C° 0 mm 0 mps 713 mmHg 94%
    08:00 +27°C° 0 mm 1 mps 714 mmHg 86%
    09:00 +29°C° 0 mm 1 mps 714 mmHg 78%
    10:00 +30°C° 0 mm 1 mps 715 mmHg 70%
    11:00 +32°C° 0 mm 1 mps 714 mmHg 64%
    12:00 +33°C° 0 mm 1 mps 713 mmHg 58%
    13:00 +35°C° 0 mm 1 mps 713 mmHg 52%
    14:00 +34°C° 0.2 mm 1 mps 712 mmHg 57%
    15:00 +33°C° 0.2 mm 1 mps 711 mmHg 61%
    16:00 +32°C° 0.2 mm 1 mps 711 mmHg 66%
    17:00 +30°C° 0.2 mm 1 mps 711 mmHg 74%
    18:00 +29°C° 0.2 mm 1 mps 711 mmHg 82%
    19:00 +27°C° 0.2 mm 1 mps 711 mmHg 91%
    20:00 +26°C° 0 mm 1 mps 712 mmHg 91%
    21:00 +24°C° 0 mm 0 mps 712 mmHg 91%
    22:00 +24°C° 0 mm 0 mps 713 mmHg 92%
    23:00 +24°C° 0 mm 0 mps 713 mmHg 92%

    28 April, Sunday

    Time Temperature Precipitation Wind Pressure Humidity
    00:00 +23°C° 0 mm 0 mps 712 mmHg 93%
    01:00 +25°C° 0 mm 1 mps 712 mmHg 94%
    02:00 +23°C° 1 mm 0 mps 712 mmHg 94%
    03:00 +23°C° 1 mm 0 mps 712 mmHg 95%
    04:00 +22°C° 1 mm 0 mps 711 mmHg 95%
    05:00 +23°C° 0.3 mm 0 mps 712 mmHg 95%
    06:00 +25°C° 0.3 mm 1 mps 712 mmHg 95%
    07:00 +25°C° 0.3 mm 1 mps 713 mmHg 95%
    08:00 +27°C° 0 mm 1 mps 713 mmHg 86%
    09:00 +28°C° 0 mm 1 mps 714 mmHg 78%
    10:00 +30°C° 0 mm 2 mps 715 mmHg 70%
    11:00 +32°C° 0.1 mm 1 mps 714 mmHg 64%
    12:00 +33°C° 0.1 mm 1 mps 713 mmHg 59%
    13:00 +34°C° 0.1 mm 1 mps 713 mmHg 53%
    14:00 +33°C° 0.7 mm 1 mps 712 mmHg 58%
    15:00 +33°C° 0.7 mm 1 mps 711 mmHg 62%
    16:00 +32°C° 0.7 mm 1 mps 711 mmHg 67%
    17:00 +30°C° 0.5 mm 1 mps 711 mmHg 74%
    18:00 +28°C° 0.5 mm 1 mps 712 mmHg 82%
    19:00 +27°C° 0.5 mm 1 mps 713 mmHg 89%
    20:00 +26°C° 0.5 mm 1 mps 713 mmHg 90%
    21:00 +26°C° 0.5 mm 1 mps 713 mmHg 91%
    22:00 +26°C° 0.5 mm 1 mps 714 mmHg 92%
    23:00 +25°C° 1 mm 1 mps 714 mmHg 93%

    29 April, Monday

    Time Temperature Precipitation Wind Pressure Humidity
    00:00 +25°C° 1 mm 1 mps 713 mmHg 94%
    01:00 +25°C° 1 mm 1 mps 713 mmHg 95%
    02:00 +25°C° 0.6 mm 1 mps 713 mmHg 95%
    03:00 +24°C° 0.6 mm 1 mps 712 mmHg 95%
    04:00 +24°C° 0.6 mm 1 mps 712 mmHg 96%
    05:00 +24°C° 0 mm 1 mps 713 mmHg 96%
    06:00 +24°C° 0 mm 1 mps 713 mmHg 95%
    07:00 +25°C° 0 mm 1 mps 714 mmHg 95%
    08:00 +26°C° 0 mm 1 mps 715 mmHg 86%
    09:00 +28°C° 0 mm 1 mps 715 mmHg 77%
    10:00 +30°C° 0 mm 1 mps 715 mmHg 69%
    11:00 +31°C° 0.4 mm 1 mps 715 mmHg 67%
    12:00 +31°C° 0.4 mm 1 mps 714 mmHg 66%
    13:00 +32°C° 0.4 mm 1 mps 713 mmHg 64%
    14:00 +31°C° 1.9 mm 1 mps 713 mmHg 72%
    15:00 +28°C° 1.9 mm 0 mps 712 mmHg 80%
    16:00 +27°C° 1.9 mm 0 mps 712 mmHg 88%
    17:00 +26°C° 0.3 mm 0 mps 712 mmHg 90%
    18:00 +25°C° 0.3 mm 0 mps 713 mmHg 92%
    19:00 +24°C° 0.3 mm 0 mps 713 mmHg 94%
    20:00 +23°C° 0 mm 0 mps 714 mmHg 95%
    21:00 +23°C° 0 mm 0 mps 714 mmHg 95%
    22:00 +23°C° 0 mm 0 mps 714 mmHg 96%
    23:00 +23°C° 0 mm 0 mps 714 mmHg 96%

    30 April, Tuesday

    Time Temperature Precipitation Wind Pressure Humidity
    00:00 +22°C° 0 mm 0 mps 714 mmHg 96%
    01:00 +22°C° 0 mm 0 mps 714 mmHg 96%
    02:00 +22°C° 0 mm 0 mps 714 mmHg 97%
    03:00 +22°C° 0 mm 0 mps 713 mmHg 97%
    04:00 +24°C° 0 mm 1 mps 713 mmHg 98%
    05:00 +22°C° 0 mm 0 mps 714 mmHg 97%
    06:00 +22°C° 0 mm 0 mps 714 mmHg 96%
    07:00 +22°C° 0 mm 0 mps 715 mmHg 96%
    08:00 +25°C° 0.1 mm 1 mps 715 mmHg 90%
    09:00 +27°C° 0.1 mm 1 mps 715 mmHg 85%
    10:00 +28°C° 0.1 mm 1 mps 716 mmHg 80%
    11:00 +29°C° 0 mm 1 mps 715 mmHg 74%
    12:00 +30°C° 0 mm 1 mps 714 mmHg 68%
    13:00 +31°C° 0 mm 1 mps 714 mmHg 61%
    14:00 +31°C° 0.3 mm 1 mps 713 mmHg 63%
    15:00 +31°C° 0.3 mm 1 mps 713 mmHg 65%
    16:00 +29°C° 0.3 mm 0 mps 713 mmHg 67%
    17:00 +27°C° 2.7 mm 0 mps 713 mmHg 77%
    18:00 +25°C° 2.7 mm 0 mps 713 mmHg 87%
    19:00 +25°C° 2.7 mm 1 mps 714 mmHg 97%
    20:00 +22°C° 0.2 mm 0 mps 714 mmHg 96%
    21:00 +22°C° 0.2 mm 0 mps 714 mmHg 96%
    22:00 +22°C° 0.2 mm 0 mps 714 mmHg 96%
    23:00 +22°C° 0 mm 0 mps 713 mmHg 96%
    Show more